Погода в Важском

Россия / Архангельская область     62°38′43″N   42°56′49″E
темп.,
°C
ветер,
м/с
пор.,
м/с
влажн.,
%
обл.,
%
осадки,
мм/ч
давл.,
гПа
погр.,
м
17 апреля, сб
сб1700:00−1сз11965 0.0 103315
03:00−2зсз13965 0.0 103450
06:000сз148413 0.0 1033112
09:00+6зсз36669 0.0 1033441
12:00+10зсз46526 0.0 10311092
15:00+11сз47475 0.0 10301416
18:00+9сз38645 0.0 1029629
21:00+5сз311825 0.0 1030332
18 апреля, вс
вс1800:00+2ссз39885 0.0 1031316
03:00+3св378526 0.0 1033581
06:00−1св38765 0.0 1035507
09:00+2всв35514 0.0 1036977
12:00+5всв34395 0.0 10361381
15:00+6всв34345 0.0 10361628
18:00+5всв24411 0.0 1036533
21:00+1в25650 0.0 103798
19 апреля, пн
пн1900:00−1вюв26665 0.0 1038139
03:00−1вюв24675 0.0 103985
06:000вюв14645 0.0 1039147
09:00+4юв2245100 0.0 1039671
12:00+6юв2236100 0.0 10381173
15:00+7юв223541 0.0 10371215
18:00+6вюв12450 0.0 103646
21:00+2вюв22600 0.0 103615
20 апреля, вт
вт2000:000ююв22670 0.0 103725
03:000ююв22700 0.0 103621
06:00+1ююв13670 0.0 1036109
09:00+6ююв24460 0.0 1035622
12:00+9ююв34370 0.0 10341346
15:00+10ююв35320 0.0 10321547
18:00+9юв37400 0.0 1029399
21:00+4юв28610 0.0 1029159
21 апреля, ср
ср2100:00+3юв311665 0.0 1027235
03:00+2вюв3117067 0.0 1026293
06:00+2вюв51462100 0.0 1023513
09:00+5юв61651100 0.0 1019779
12:00+8юв61543100 0.0 10161072
15:00+7ююв61665100 0.4 10141347
18:00+6юв71575100 0.1 10121161
21:00+6ююв71580100 0.1 10101246